Time,TemperatureF,DewpointF,PressureIn,WindDirection,WindDirectionDegrees,WindSpeedMPH,WindSpeedGustMPH,Humidity,HourlyPrecipIn,Conditions,Clouds,dailyrainin,SoftwareType,DateUTC
2013-06-14 00:04:00,57.7,51.6,26.43,NW,315,5.3,7.6,80,0.00,,,0.00,WUHU216HW,2013-06-14 04:04:00,
2013-06-14 00:09:00,57.7,51.6,26.43,NW,315,6.4,7.6,80,0.00,,,0.00,WUHU216HW,2013-06-14 04:09:00,
2013-06-14 00:14:00,57.5,51.7,26.43,NW,315,4.9,6.4,81,0.00,,,0.00,WUHU216HW,2013-06-14 04:14:00,
2013-06-14 00:18:00,57.3,51.5,26.43,NW,315,5.5,5.8,81,0.00,,,0.00,WUHU216HW,2013-06-14 04:18:00,
2013-06-14 00:26:00,57.2,51.0,26.43,NW,315,4.6,7.8,80,0.00,,,0.00,WUHU216HW,2013-06-14 04:26:00,
2013-06-14 00:34:00,57.0,50.9,26.43,NW,315,6.4,7.8,80,0.00,,,0.00,WUHU216HW,2013-06-14 04:34:00,
2013-06-14 00:43:00,57.0,51.2,26.43,NW,315,2.4,6.4,81,0.00,,,0.00,WUHU216HW,2013-06-14 04:43:00,
2013-06-14 00:51:00,56.8,51.0,26.43,NW,315,2.6,4.9,81,0.00,,,0.00,WUHU216HW,2013-06-14 04:51:00,
2013-06-14 00:59:00,56.6,50.8,26.43,NW,315,3.8,5.5,81,0.00,,,0.00,WUHU216HW,2013-06-14 04:59:00,
2013-06-14 01:08:00,56.4,50.6,26.44,NW,315,5.1,5.3,81,0.00,,,0.00,WUHU216HW,2013-06-14 05:08:00,
2013-06-14 01:16:00,56.4,50.6,26.44,NW,315,4.0,5.1,81,0.00,,,0.00,WUHU216HW,2013-06-14 05:16:00,
2013-06-14 01:24:00,56.4,50.6,26.44,WNW,293,4.0,4.0,81,0.00,,,0.00,WUHU216HW,2013-06-14 05:24:00,
2013-06-14 01:32:00,56.4,51.0,26.43,WNW,293,4.4,4.4,82,0.00,,,0.00,WUHU216HW,2013-06-14 05:32:00,
2013-06-14 01:41:00,56.4,51.0,26.43,NW,315,2.9,4.4,82,0.00,,,0.00,WUHU216HW,2013-06-14 05:41:00,
2013-06-14 01:49:00,56.3,50.8,26.43,WNW,293,2.9,4.9,82,0.00,,,0.00,WUHU216HW,2013-06-14 05:49:00,
2013-06-14 01:57:00,56.3,50.8,26.43,WNW,293,4.9,5.1,82,0.00,,,0.00,WUHU216HW,2013-06-14 05:57:00,
2013-06-14 02:06:00,56.3,50.8,26.43,NW,315,2.6,4.9,82,0.00,,,0.00,WUHU216HW,2013-06-14 06:06:00,
2013-06-14 02:14:00,56.3,50.8,26.43,NW,315,4.9,7.1,82,0.00,,,0.00,WUHU216HW,2013-06-14 06:14:00,
2013-06-14 02:22:00,56.1,50.9,26.43,WNW,293,3.3,5.3,83,0.00,,,0.00,WUHU216HW,2013-06-14 06:22:00,
2013-06-14 02:30:00,55.9,50.7,26.43,WNW,293,4.6,4.9,83,0.00,,,0.00,WUHU216HW,2013-06-14 06:30:00,
2013-06-14 02:39:00,56.1,50.9,26.43,NW,315,4.6,7.1,83,0.00,,,0.00,WUHU216HW,2013-06-14 06:39:00,
2013-06-14 02:47:00,56.1,50.9,26.43,WNW,293,7.6,7.6,83,0.00,,,0.00,WUHU216HW,2013-06-14 06:47:00,
2013-06-14 02:55:00,56.3,51.1,26.43,NW,315,5.5,7.6,83,0.00,,,0.00,WUHU216HW,2013-06-14 06:55:00,
2013-06-14 03:04:00,56.4,51.3,26.43,NW,315,4.0,7.3,83,0.00,,,0.00,WUHU216HW,2013-06-14 07:04:00,
2013-06-14 03:12:00,56.4,51.6,26.42,NW,315,6.9,6.9,84,0.00,,,0.00,WUHU216HW,2013-06-14 07:12:00,
2013-06-14 03:20:00,56.4,51.6,26.42,NW,315,5.3,6.9,84,0.00,,,0.00,WUHU216HW,2013-06-14 07:20:00,
2013-06-14 03:28:00,56.4,51.6,26.42,WNW,293,4.9,5.3,84,0.00,,,0.00,WUHU216HW,2013-06-14 07:28:00,
2013-06-14 03:37:00,56.4,51.6,26.42,NW,315,3.8,4.9,84,0.00,,,0.00,WUHU216HW,2013-06-14 07:37:00,
2013-06-14 03:45:00,56.4,51.6,26.42,NW,315,5.1,5.1,84,0.00,,,0.00,WUHU216HW,2013-06-14 07:45:00,
2013-06-14 03:53:00,56.4,51.6,26.42,WNW,293,6.7,6.7,84,0.00,,,0.00,WUHU216HW,2013-06-14 07:53:00,
2013-06-14 04:01:00,56.4,51.6,26.41,NW,315,5.5,6.7,84,0.00,,,0.00,WUHU216HW,2013-06-14 08:01:00,
2013-06-14 04:10:00,56.6,51.8,26.42,WNW,293,6.0,6.0,84,0.00,,,0.00,WUHU216HW,2013-06-14 08:10:00,
2013-06-14 04:18:00,56.6,51.8,26.41,West,270,4.0,6.0,84,0.00,,,0.00,WUHU216HW,2013-06-14 08:18:00,
2013-06-14 04:26:00,56.4,51.6,26.41,NW,315,4.6,4.6,84,0.00,,,0.00,WUHU216HW,2013-06-14 08:26:00,
2013-06-14 04:35:00,56.4,51.6,26.41,NW,315,3.3,5.8,84,0.00,,,0.00,WUHU216HW,2013-06-14 08:35:00,
2013-06-14 04:43:00,56.3,51.2,26.41,WNW,293,4.2,4.2,84,0.00,,,0.00,WUHU216HW,2013-06-14 08:43:00,
2013-06-14 04:51:00,56.1,51.2,26.41,NW,315,2.2,4.2,84,0.00,,,0.00,WUHU216HW,2013-06-14 08:51:00,
2013-06-14 05:00:00,55.9,51.1,26.42,NW,315,2.9,5.3,84,0.00,,,0.00,WUHU216HW,2013-06-14 09:00:00,
2013-06-14 05:07:00,55.9,51.1,26.42,WNW,293,4.9,4.9,84,0.00,,,0.00,WUHU216HW,2013-06-14 09:07:00,
2013-06-14 05:12:00,55.9,51.1,26.42,WNW,293,4.9,4.9,84,0.00,,,0.00,WUHU216HW,2013-06-14 09:12:00,
2013-06-14 05:20:00,55.9,51.1,26.41,WNW,293,2.9,4.9,84,0.00,,,0.00,WUHU216HW,2013-06-14 09:20:00,
2013-06-14 05:28:00,55.9,51.1,26.42,NW,315,3.8,4.6,84,0.00,,,0.00,WUHU216HW,2013-06-14 09:28:00,
2013-06-14 05:36:00,55.9,51.1,26.42,NW,315,4.0,4.6,84,0.00,,,0.00,WUHU216HW,2013-06-14 09:36:00,
2013-06-14 05:45:00,55.9,50.7,26.43,NW,315,4.2,7.1,83,0.00,,,0.00,WUHU216HW,2013-06-14 09:45:00,
2013-06-14 05:53:00,55.9,50.7,26.43,NW,315,6.7,6.7,83,0.00,,,0.00,WUHU216HW,2013-06-14 09:53:00,
2013-06-14 06:01:00,56.1,50.9,26.43,NW,315,5.3,6.7,83,0.00,,,0.00,WUHU216HW,2013-06-14 10:01:00,
2013-06-14 06:09:00,56.1,50.9,26.43,NW,315,5.8,5.8,83,0.00,,,0.00,WUHU216HW,2013-06-14 10:09:00,
2013-06-14 06:18:00,56.1,50.6,26.43,NW,315,6.2,6.4,82,0.00,,,0.00,WUHU216HW,2013-06-14 10:18:00,
2013-06-14 06:26:00,56.1,50.6,26.44,WNW,293,4.4,8.7,82,0.00,,,0.00,WUHU216HW,2013-06-14 10:26:00,
2013-06-14 06:34:00,56.1,50.6,26.44,NW,315,6.4,6.9,82,0.00,,,0.00,WUHU216HW,2013-06-14 10:34:00,
2013-06-14 06:43:00,56.1,50.6,26.45,NW,315,4.4,7.3,82,0.00,,,0.00,WUHU216HW,2013-06-14 10:43:00,
2013-06-14 06:51:00,56.1,50.6,26.45,NW,315,4.9,6.2,82,0.00,,,0.00,WUHU216HW,2013-06-14 10:51:00,
2013-06-14 06:59:00,56.3,50.8,26.45,NW,315,5.5,7.3,82,0.00,,,0.00,WUHU216HW,2013-06-14 10:59:00,
2013-06-14 07:16:00,56.3,50.8,26.45,NW,315,5.3,7.1,82,0.00,,,0.00,WUHU216HW,2013-06-14 11:16:00,
2013-06-14 07:22:00,56.4,51.3,26.45,NW,315,4.2,4.9,83,0.00,,,0.00,WUHU216HW,2013-06-14 11:22:00,
2013-06-14 07:27:00,56.4,51.3,26.45,NW,315,3.8,4.9,83,0.00,,,0.00,WUHU216HW,2013-06-14 11:27:00,
2013-06-14 07:32:00,56.4,51.0,26.45,NW,315,5.1,5.1,82,0.00,,,0.00,WUHU216HW,2013-06-14 11:32:00,
2013-06-14 07:37:00,56.4,51.0,26.45,NW,315,5.1,5.1,82,0.00,,,0.00,WUHU216HW,2013-06-14 11:37:00,
2013-06-14 07:42:00,56.3,51.1,26.46,NW,315,7.6,7.6,83,0.00,,,0.00,WUHU216HW,2013-06-14 11:42:00,
2013-06-14 07:47:00,56.3,51.1,26.47,NW,315,5.1,7.6,83,0.00,,,0.00,WUHU216HW,2013-06-14 11:47:00,
2013-06-14 07:52:00,56.3,51.1,26.47,NW,315,2.4,7.6,83,0.00,,,0.00,WUHU216HW,2013-06-14 11:52:00,
2013-06-14 07:57:00,56.4,51.6,26.47,WNW,293,4.9,5.1,84,0.00,,,0.00,WUHU216HW,2013-06-14 11:57:00,
2013-06-14 08:02:00,56.4,51.3,26.47,WNW,293,4.9,5.1,83,0.00,,,0.00,WUHU216HW,2013-06-14 12:02:00,
2013-06-14 08:07:00,56.8,51.6,26.47,WNW,293,5.1,5.1,83,0.00,,,0.00,WUHU216HW,2013-06-14 12:07:00,
2013-06-14 08:12:00,57.0,51.8,26.47,WNW,293,4.2,5.1,83,0.00,,,0.00,WUHU216HW,2013-06-14 12:12:00,
2013-06-14 08:17:00,57.0,51.8,26.48,WNW,293,4.4,4.6,83,0.00,,,0.00,WUHU216HW,2013-06-14 12:17:00,
2013-06-14 08:22:00,57.0,51.5,26.48,NW,315,5.1,5.1,82,0.00,,,0.00,WUHU216HW,2013-06-14 12:22:00,
2013-06-14 08:27:00,57.0,51.5,26.48,NW,315,5.5,7.3,82,0.00,,,0.00,WUHU216HW,2013-06-14 12:27:00,
2013-06-14 08:32:00,57.0,51.5,26.48,NW,315,4.6,7.3,82,0.00,,,0.00,WUHU216HW,2013-06-14 12:32:00,
2013-06-14 08:37:00,57.0,51.5,26.49,WNW,293,5.5,6.0,82,0.00,,,0.00,WUHU216HW,2013-06-14 12:37:00,
2013-06-14 08:42:00,57.0,51.5,26.49,NW,315,4.9,6.0,82,0.00,,,0.00,WUHU216HW,2013-06-14 12:42:00,
2013-06-14 08:47:00,57.3,51.9,26.49,NW,315,3.5,6.2,82,0.00,,,0.00,WUHU216HW,2013-06-14 12:47:00,
2013-06-14 08:52:00,57.2,51.7,26.49,NW,315,3.1,7.3,82,0.00,,,0.00,WUHU216HW,2013-06-14 12:52:00,
2013-06-14 08:57:00,57.7,52.2,26.50,NW,315,6.9,7.3,82,0.00,,,0.00,WUHU216HW,2013-06-14 12:57:00,
2013-06-14 09:02:00,57.7,51.9,26.50,NW,315,6.4,6.9,81,0.00,,,0.00,WUHU216HW,2013-06-14 13:02:00,
2013-06-14 09:07:00,57.9,51.6,26.51,NW,315,4.9,6.9,80,0.00,,,0.00,WUHU216HW,2013-06-14 13:07:00,
2013-06-14 09:12:00,57.9,51.8,26.51,WNW,293,7.1,7.1,80,0.00,,,0.00,WUHU216HW,2013-06-14 13:12:00,
2013-06-14 09:17:00,58.1,51.9,26.51,NW,315,5.3,7.1,80,0.00,,,0.00,WUHU216HW,2013-06-14 13:17:00,
2013-06-14 09:22:00,58.1,51.6,26.51,NW,315,6.2,7.1,79,0.00,,,0.00,WUHU216HW,2013-06-14 13:22:00,
2013-06-14 09:27:00,58.2,51.8,26.51,NW,315,5.5,7.3,79,0.00,,,0.00,WUHU216HW,2013-06-14 13:27:00,
2013-06-14 09:32:00,58.6,52.1,26.51,NW,315,4.6,7.3,79,0.00,,,0.00,WUHU216HW,2013-06-14 13:32:00,
2013-06-14 09:37:00,58.8,52.3,26.51,NW,315,5.3,6.4,79,0.00,,,0.00,WUHU216HW,2013-06-14 13:37:00,
2013-06-14 09:42:00,58.8,51.9,26.51,NNW,338,6.2,8.0,78,0.00,,,0.00,WUHU216HW,2013-06-14 13:42:00,
2013-06-14 09:47:00,58.8,51.6,26.51,NW,315,8.9,8.9,77,0.00,,,0.00,WUHU216HW,2013-06-14 13:47:00,
2013-06-14 09:52:00,58.8,50.9,26.51,NW,315,7.1,8.9,75,0.00,,,0.00,WUHU216HW,2013-06-14 13:52:00,
2013-06-14 09:57:00,59.1,50.9,26.51,NW,315,10.9,10.9,74,0.00,,,0.00,WUHU216HW,2013-06-14 13:57:00,
2013-06-14 10:02:00,59.5,50.9,26.51,NW,315,5.1,10.9,73,0.00,,,0.00,WUHU216HW,2013-06-14 14:02:00,
2013-06-14 10:07:00,59.7,51.0,26.51,NW,315,5.1,10.9,73,0.00,,,0.00,WUHU216HW,2013-06-14 14:07:00,
2013-06-14 10:12:00,59.9,51.6,26.51,NW,315,3.5,7.1,74,0.00,,,0.00,WUHU216HW,2013-06-14 14:12:00,
2013-06-14 10:17:00,60.0,51.4,26.51,NW,315,5.8,6.9,73,0.00,,,0.00,WUHU216HW,2013-06-14 14:17:00,
2013-06-14 10:22:00,60.0,50.7,26.51,NW,315,7.3,8.0,71,0.00,,,0.00,WUHU216HW,2013-06-14 14:22:00,
2013-06-14 10:27:00,60.4,51.0,26.51,NW,315,7.1,8.0,71,0.00,,,0.00,WUHU216HW,2013-06-14 14:27:00,
2013-06-14 10:32:00,60.8,51.4,26.51,NW,315,6.9,7.3,71,0.00,,,0.00,WUHU216HW,2013-06-14 14:32:00,
2013-06-14 10:37:00,60.6,51.2,26.51,NW,315,7.3,8.5,71,0.00,,,0.00,WUHU216HW,2013-06-14 14:37:00,
2013-06-14 10:42:00,60.4,50.7,26.51,NW,315,7.3,8.5,70,0.00,,,0.00,WUHU216HW,2013-06-14 14:42:00,
2013-06-14 10:47:00,60.4,50.7,26.51,NNW,338,9.6,9.6,70,0.00,,,0.00,WUHU216HW,2013-06-14 14:47:00,
2013-06-14 10:52:00,60.6,50.4,26.51,NW,315,6.9,9.6,69,0.00,,,0.00,WUHU216HW,2013-06-14 14:52:00,
2013-06-14 10:57:00,60.9,50.8,26.51,NW,315,6.9,9.6,69,0.00,,,0.00,WUHU216HW,2013-06-14 14:57:00,
2013-06-14 11:02:00,61.3,51.1,26.51,NNW,338,6.7,7.3,69,0.00,,,0.00,WUHU216HW,2013-06-14 15:02:00,
2013-06-14 11:07:00,61.5,51.3,26.52,NW,315,6.9,7.3,69,0.00,,,0.00,WUHU216HW,2013-06-14 15:07:00,
2013-06-14 11:13:00,61.7,50.6,26.52,NW,315,9.6,9.6,67,0.00,,,0.00,WUHU216HW,2013-06-14 15:13:00,
2013-06-14 11:18:00,62.0,50.5,26.52,NNW,338,8.9,10.5,66,0.00,,,0.00,WUHU216HW,2013-06-14 15:18:00,
2013-06-14 11:23:00,62.0,51.3,26.52,NNW,338,4.6,10.5,68,0.00,,,0.00,WUHU216HW,2013-06-14 15:23:00,
2013-06-14 11:28:00,62.4,51.2,26.52,NW,315,7.3,8.9,67,0.00,,,0.00,WUHU216HW,2013-06-14 15:28:00,
2013-06-14 11:37:00,62.4,50.8,26.52,NW,315,7.6,7.6,66,0.00,,,0.00,WUHU216HW,2013-06-14 15:37:00,
2013-06-14 11:42:00,62.4,50.8,26.52,NNW,338,8.2,8.2,66,0.00,,,0.00,WUHU216HW,2013-06-14 15:42:00,
2013-06-14 11:47:00,62.4,49.6,26.51,NW,315,10.7,11.1,63,0.00,,,0.00,WUHU216HW,2013-06-14 15:47:00,
2013-06-14 11:52:00,62.4,49.6,26.52,NW,315,9.1,11.4,63,0.00,,,0.00,WUHU216HW,2013-06-14 15:52:00,
2013-06-14 11:57:00,62.6,49.8,26.52,NW,315,0.0,11.4,63,0.00,,,0.00,WUHU216HW,2013-06-14 15:57:00,
2013-06-14 12:02:00,62.6,49.8,26.52,NW,315,8.9,11.8,63,0.00,,,0.00,WUHU216HW,2013-06-14 16:02:00,
2013-06-14 12:07:00,62.7,49.9,26.52,NW,315,9.8,11.8,63,0.00,,,0.00,WUHU216HW,2013-06-14 16:07:00,
2013-06-14 12:12:00,63.1,50.2,26.52,NW,315,8.7,10.7,63,0.00,,,0.00,WUHU216HW,2013-06-14 16:12:00,
2013-06-14 12:17:00,63.1,50.2,26.52,NW,315,9.1,9.8,63,0.00,,,0.00,WUHU216HW,2013-06-14 16:17:00,
2013-06-14 12:22:00,63.1,50.2,26.53,NNW,338,7.8,9.1,63,0.00,,,0.00,WUHU216HW,2013-06-14 16:22:00,
2013-06-14 12:27:00,63.3,50.4,26.53,NW,315,9.8,9.8,63,0.00,,,0.00,WUHU216HW,2013-06-14 16:27:00,
2013-06-14 12:32:00,63.5,50.6,26.53,NW,315,7.1,9.8,63,0.00,,,0.00,WUHU216HW,2013-06-14 16:32:00,
2013-06-14 12:37:00,63.3,50.0,26.53,NW,315,7.8,9.8,62,0.00,,,0.00,WUHU216HW,2013-06-14 16:37:00,
2013-06-14 12:42:00,63.3,50.8,26.53,NW,315,7.6,9.8,64,0.00,,,0.00,WUHU216HW,2013-06-14 16:42:00,
2013-06-14 12:47:00,63.5,50.6,26.53,NW,315,7.6,9.8,63,0.00,,,0.00,WUHU216HW,2013-06-14 16:47:00,
2013-06-14 12:52:00,63.3,50.0,26.53,NNW,338,6.4,14.0,62,0.00,,,0.00,WUHU216HW,2013-06-14 16:52:00,
2013-06-14 12:57:00,63.5,50.2,26.53,NW,315,7.8,14.0,62,0.00,,,0.00,WUHU216HW,2013-06-14 16:57:00,
2013-06-14 13:02:00,63.3,50.0,26.53,NW,315,10.0,10.0,62,0.00,,,0.00,WUHU216HW,2013-06-14 17:02:00,
2013-06-14 13:07:00,63.5,50.2,26.54,NW,315,9.1,10.0,62,0.00,,,0.00,WUHU216HW,2013-06-14 17:07:00,
2013-06-14 13:12:00,63.6,50.3,26.53,NW,315,6.9,10.0,62,0.00,,,0.00,WUHU216HW,2013-06-14 17:12:00,
2013-06-14 13:17:00,64.0,50.7,26.54,NW,315,7.1,10.0,62,0.00,,,0.00,WUHU216HW,2013-06-14 17:17:00,
2013-06-14 13:22:00,64.2,50.8,26.54,NW,315,8.2,9.1,62,0.00,,,0.00,WUHU216HW,2013-06-14 17:22:00,
2013-06-14 13:27:00,64.2,50.4,26.54,NW,315,6.9,10.5,61,0.00,,,0.00,WUHU216HW,2013-06-14 17:27:00,
2013-06-14 13:32:00,64.5,50.7,26.54,NNW,338,7.1,10.5,61,0.00,,,0.00,WUHU216HW,2013-06-14 17:32:00,
2013-06-14 13:37:00,64.5,50.7,26.54,NNW,338,6.9,7.6,61,0.00,,,0.00,WUHU216HW,2013-06-14 17:37:00,
2013-06-14 13:42:00,64.5,50.7,26.54,WNW,293,7.6,7.6,61,0.00,,,0.00,WUHU216HW,2013-06-14 17:42:00,
2013-06-14 13:47:00,64.5,50.7,26.54,NNW,338,8.5,10.0,61,0.00,,,0.00,WUHU216HW,2013-06-14 17:47:00,
2013-06-14 13:52:00,64.5,50.3,26.54,NW,315,8.0,10.0,60,0.00,,,0.00,WUHU216HW,2013-06-14 17:52:00,
2013-06-14 13:57:00,64.2,50.4,26.55,WNW,293,6.7,10.0,61,0.00,,,0.00,WUHU216HW,2013-06-14 17:57:00,
2013-06-14 14:02:00,64.2,50.4,26.55,NW,315,6.4,8.0,61,0.00,,,0.00,WUHU216HW,2013-06-14 18:02:00,
2013-06-14 14:07:00,64.0,50.2,26.55,NW,315,8.5,8.5,61,0.00,,,0.00,WUHU216HW,2013-06-14 18:07:00,
2013-06-14 14:12:00,63.6,49.9,26.55,NW,315,7.6,8.5,61,0.00,,,0.00,WUHU216HW,2013-06-14 18:12:00,
2013-06-14 14:17:00,63.5,50.2,26.55,NW,315,7.6,9.6,62,0.00,,,0.00,WUHU216HW,2013-06-14 18:17:00,
2013-06-14 14:22:00,64.0,50.7,26.55,NW,315,7.3,10.7,62,0.00,,,0.00,WUHU216HW,2013-06-14 18:22:00,
2013-06-14 14:27:00,64.5,51.2,26.55,NW,315,6.0,10.7,62,0.00,,,0.00,WUHU216HW,2013-06-14 18:27:00,
2013-06-14 14:32:00,64.5,50.7,26.55,NW,315,13.1,13.1,61,0.00,,,0.00,WUHU216HW,2013-06-14 18:32:00,
2013-06-14 14:37:00,64.2,50.4,26.55,NW,315,10.0,13.1,61,0.00,,,0.00,WUHU216HW,2013-06-14 18:37:00,
2013-06-14 14:42:00,64.0,49.8,26.55,NW,315,10.5,10.5,60,0.00,,,0.00,WUHU216HW,2013-06-14 18:42:00,
2013-06-14 14:47:00,64.0,50.2,26.55,NNW,338,5.1,10.5,61,0.00,,,0.00,WUHU216HW,2013-06-14 18:47:00,
2013-06-14 14:52:00,63.8,50.5,26.55,North,0,3.5,10.5,62,0.00,,,0.00,WUHU216HW,2013-06-14 18:52:00,
2013-06-14 14:57:00,64.0,50.7,26.55,NNW,338,0.0,6.4,62,0.00,,,0.00,WUHU216HW,2013-06-14 18:57:00,
2013-06-14 15:02:00,64.2,50.8,26.55,NW,315,7.8,7.8,62,0.00,,,0.00,WUHU216HW,2013-06-14 19:02:00,
2013-06-14 15:07:00,64.2,50.8,26.54,NW,315,7.6,12.9,62,0.00,,,0.00,WUHU216HW,2013-06-14 19:07:00,
2013-06-14 15:12:00,64.5,51.6,26.54,WSW,248,5.8,12.9,63,0.00,,,0.00,WUHU216HW,2013-06-14 19:12:00,
2013-06-14 15:17:00,64.7,51.3,26.55,NW,315,8.2,8.2,62,0.00,,,0.00,WUHU216HW,2013-06-14 19:17:00,
2013-06-14 15:23:00,65.1,52.1,26.55,NW,315,8.0,8.2,63,0.00,,,0.00,WUHU216HW,2013-06-14 19:23:00,
2013-06-14 15:28:00,65.1,51.7,26.55,NW,315,5.5,8.0,62,0.00,,,0.00,WUHU216HW,2013-06-14 19:28:00,
2013-06-14 15:33:00,64.9,51.5,26.55,WNW,293,0.0,8.0,62,0.00,,,0.00,WUHU216HW,2013-06-14 19:33:00,
2013-06-14 15:38:00,64.5,51.6,26.55,NW,315,4.9,7.3,63,0.00,,,0.00,WUHU216HW,2013-06-14 19:38:00,
2013-06-14 15:43:00,64.0,51.1,26.55,NW,315,7.6,7.6,63,0.00,,,0.00,WUHU216HW,2013-06-14 19:43:00,
2013-06-14 15:48:00,63.8,51.3,26.55,WSW,248,6.2,8.0,64,0.00,,,0.00,WUHU216HW,2013-06-14 19:48:00,
2013-06-14 15:53:00,64.2,51.7,26.55,NW,315,7.6,8.0,64,0.00,,,0.00,WUHU216HW,2013-06-14 19:53:00,
2013-06-14 15:58:00,64.2,51.7,26.55,WSW,248,7.1,7.6,64,0.00,,,0.00,WUHU216HW,2013-06-14 19:58:00,
2013-06-14 16:03:00,64.2,51.2,26.54,NW,315,6.4,7.3,63,0.00,,,0.00,WUHU216HW,2013-06-14 20:03:00,
2013-06-14 16:08:00,64.5,51.6,26.54,NNW,338,5.3,7.3,63,0.00,,,0.00,WUHU216HW,2013-06-14 20:08:00,
2013-06-14 16:13:00,64.5,51.6,26.54,WSW,248,7.6,7.6,63,0.00,,,0.00,WUHU216HW,2013-06-14 20:13:00,
2013-06-14 16:18:00,64.7,51.8,26.54,NW,315,6.7,7.6,63,0.00,,,0.00,WUHU216HW,2013-06-14 20:18:00,
2013-06-14 16:23:00,64.9,51.5,26.54,NNW,338,7.3,7.3,62,0.00,,,0.00,WUHU216HW,2013-06-14 20:23:00,
2013-06-14 16:28:00,64.9,51.1,26.54,NW,315,9.3,9.8,61,0.00,,,0.00,WUHU216HW,2013-06-14 20:28:00,
2013-06-14 16:33:00,65.1,51.3,26.55,NW,315,7.1,9.8,61,0.00,,,0.00,WUHU216HW,2013-06-14 20:33:00,
2013-06-14 16:38:00,65.1,51.3,26.54,NW,315,4.6,9.3,61,0.00,,,0.00,WUHU216HW,2013-06-14 20:38:00,
2013-06-14 16:43:00,65.1,51.4,26.54,NW,315,10.2,10.2,61,0.00,,,0.00,WUHU216HW,2013-06-14 20:43:00,
2013-06-14 16:48:00,65.3,51.4,26.54,NW,315,9.1,10.2,61,0.00,,,0.00,WUHU216HW,2013-06-14 20:48:00,
2013-06-14 16:53:00,65.4,51.6,26.54,NW,315,7.3,10.2,61,0.00,,,0.00,WUHU216HW,2013-06-14 20:53:00,
2013-06-14 16:58:00,65.4,51.6,26.55,NW,315,7.1,9.1,61,0.00,,,0.00,WUHU216HW,2013-06-14 20:58:00,
2013-06-14 17:03:00,65.8,52.0,26.55,NW,315,5.1,7.3,61,0.00,,,0.00,WUHU216HW,2013-06-14 21:03:00,
2013-06-14 17:08:00,65.4,51.2,26.55,NW,315,0.0,7.1,60,0.00,,,0.00,WUHU216HW,2013-06-14 21:08:00,
2013-06-14 17:13:00,65.1,51.4,26.55,NW,315,3.1,6.2,61,0.00,,,0.00,WUHU216HW,2013-06-14 21:13:00,
2013-06-14 17:18:00,65.1,51.3,26.55,NW,315,3.1,6.2,61,0.00,,,0.00,WUHU216HW,2013-06-14 21:18:00,
2013-06-14 17:23:00,65.1,51.3,26.55,NW,315,5.3,5.8,61,0.00,,,0.00,WUHU216HW,2013-06-14 21:23:00,
2013-06-14 17:28:00,64.5,51.2,26.55,NW,315,3.8,5.8,62,0.00,,,0.00,WUHU216HW,2013-06-14 21:28:00,
2013-06-14 17:33:00,64.2,51.2,26.55,NW,315,0.0,3.8,63,0.00,,,0.00,WUHU216HW,2013-06-14 21:33:00,
2013-06-14 17:38:00,64.2,51.7,26.55,NW,315,2.2,3.8,64,0.00,,,0.00,WUHU216HW,2013-06-14 21:38:00,
2013-06-14 17:43:00,64.5,52.0,26.55,NW,315,0.0,2.2,64,0.00,,,0.00,WUHU216HW,2013-06-14 21:43:00,
2013-06-14 17:48:00,64.9,52.4,26.55,NW,315,0.0,0.0,64,0.00,,,0.00,WUHU216HW,2013-06-14 21:48:00,
2013-06-14 17:53:00,64.9,51.9,26.54,NW,315,4.0,4.0,63,0.00,,,0.00,WUHU216HW,2013-06-14 21:53:00,
2013-06-14 17:58:00,64.9,51.9,26.55,NNW,338,4.4,5.3,64,0.00,,,0.00,WUHU216HW,2013-06-14 21:58:00,
2013-06-14 18:03:00,64.9,52.4,26.55,NW,315,0.4,5.5,64,0.00,,,0.00,WUHU216HW,2013-06-14 22:03:00,
2013-06-14 18:08:00,64.5,52.0,26.55,NW,315,5.5,5.5,64,0.00,,,0.00,WUHU216HW,2013-06-14 22:08:00,
2013-06-14 18:13:00,64.0,51.9,26.56,NW,315,4.4,6.2,65,0.00,,,0.00,WUHU216HW,2013-06-14 22:13:00,
2013-06-14 18:18:00,64.0,51.9,26.56,NW,315,0.0,6.2,65,0.00,,,0.00,WUHU216HW,2013-06-14 22:18:00,
2013-06-14 18:23:00,63.8,51.8,26.56,NW,315,4.4,4.4,65,0.00,,,0.00,WUHU216HW,2013-06-14 22:23:00,
2013-06-14 18:28:00,63.5,51.6,26.56,NW,315,0.0,4.4,65,0.00,,,0.00,WUHU216HW,2013-06-14 22:28:00,
2013-06-14 18:33:00,63.3,51.7,26.56,NW,315,0.0,0.0,66,0.00,,,0.00,WUHU216HW,2013-06-14 22:33:00,
2013-06-14 18:38:00,63.3,51.7,26.56,NW,315,1.1,5.5,66,0.00,,,0.00,WUHU216HW,2013-06-14 22:38:00,
2013-06-14 18:43:00,63.6,52.0,26.55,NNW,338,0.0,5.5,66,0.00,,,0.00,WUHU216HW,2013-06-14 22:43:00,
2013-06-14 18:49:00,63.6,52.0,26.56,NNW,338,0.0,4.4,66,0.00,,,0.00,WUHU216HW,2013-06-14 22:49:00,
2013-06-14 18:54:00,64.0,52.4,26.55,NW,315,7.8,7.8,66,0.00,,,0.00,WUHU216HW,2013-06-14 22:54:00,
2013-06-14 18:59:00,64.0,51.9,26.55,NW,315,4.6,7.8,65,0.00,,,0.00,WUHU216HW,2013-06-14 22:59:00,
2013-06-14 19:04:00,64.2,52.1,26.56,NW,315,0.4,7.8,65,0.00,,,0.00,WUHU216HW,2013-06-14 23:04:00,
2013-06-14 19:09:00,64.2,52.1,26.57,NW,315,0.0,7.1,65,0.00,,,0.00,WUHU216HW,2013-06-14 23:09:00,
2013-06-14 19:14:00,64.0,51.9,26.57,NW,315,7.1,7.1,65,0.00,,,0.00,WUHU216HW,2013-06-14 23:14:00,
2013-06-14 19:19:00,64.0,51.5,26.57,NW,315,3.8,7.1,64,0.00,,,0.00,WUHU216HW,2013-06-14 23:19:00,
2013-06-14 19:24:00,63.8,51.8,26.57,NW,315,2.2,7.1,65,0.00,,,0.00,WUHU216HW,2013-06-14 23:24:00,
2013-06-14 19:29:00,63.5,51.4,26.57,NW,315,0.0,2.2,65,0.00,,,0.00,WUHU216HW,2013-06-14 23:29:00,
2013-06-14 19:34:00,63.3,51.7,26.57,NW,315,4.4,4.4,66,0.00,,,0.00,WUHU216HW,2013-06-14 23:34:00,
2013-06-14 19:40:00,62.9,51.3,26.57,NW,315,0.0,4.4,66,0.00,,,0.00,WUHU216HW,2013-06-14 23:40:00,
2013-06-14 19:45:00,62.6,51.4,26.57,NW,315,0.0,0.0,67,0.00,,,0.00,WUHU216HW,2013-06-14 23:45:00,
2013-06-14 19:50:00,62.4,51.2,26.57,NW,315,0.0,0.0,67,0.00,,,0.00,WUHU216HW,2013-06-14 23:50:00,
2013-06-14 19:55:00,62.4,51.2,26.57,NW,315,0.0,0.0,67,0.00,,,0.00,WUHU216HW,2013-06-14 23:55:00,
2013-06-14 20:00:00,62.6,51.7,26.57,NW,315,0.0,0.0,68,0.00,,,0.00,WUHU216HW,2013-06-15 00:00:00,
2013-06-14 20:05:00,62.4,51.7,26.57,NW,315,0.0,0.0,68,0.00,,,0.00,WUHU216HW,2013-06-15 00:05:00,
2013-06-14 20:10:00,62.4,51.7,26.57,NW,315,0.0,0.0,68,0.00,,,0.00,WUHU216HW,2013-06-15 00:10:00,
2013-06-14 20:15:00,62.4,51.7,26.57,NW,315,0.0,0.0,68,0.00,,,0.00,WUHU216HW,2013-06-15 00:15:00,
2013-06-14 20:20:00,62.4,51.7,26.57,NW,315,0.0,0.0,68,0.00,,,0.00,WUHU216HW,2013-06-15 00:20:00,
2013-06-14 20:25:00,62.4,51.7,26.57,NW,315,0.0,0.0,68,0.00,,,0.00,WUHU216HW,2013-06-15 00:25:00,
2013-06-14 20:30:00,62.2,51.5,26.57,NW,315,0.0,0.0,68,0.00,,,0.00,WUHU216HW,2013-06-15 00:30:00,
2013-06-14 20:35:00,62.2,51.5,26.57,NW,315,0.0,0.0,68,0.00,,,0.00,WUHU216HW,2013-06-15 00:35:00,
2013-06-14 20:40:00,62.0,51.3,26.57,NW,315,0.0,0.0,68,0.00,,,0.00,WUHU216HW,2013-06-15 00:40:00,
2013-06-14 20:45:00,62.0,51.3,26.57,NW,315,0.0,0.0,68,0.00,,,0.00,WUHU216HW,2013-06-15 00:45:00,
2013-06-14 20:50:00,62.0,51.3,26.58,NW,315,0.0,0.0,68,0.00,,,0.00,WUHU216HW,2013-06-15 00:50:00,
2013-06-14 20:55:00,61.5,51.3,26.57,NW,315,0.0,0.0,69,0.00,,,0.00,WUHU216HW,2013-06-15 00:55:00,
2013-06-14 21:00:00,61.5,51.3,26.57,NW,315,0.0,0.0,69,0.00,,,0.00,WUHU216HW,2013-06-15 01:00:00,
2013-06-14 21:05:00,61.3,51.1,26.58,NW,315,0.0,0.0,69,0.00,,,0.00,WUHU216HW,2013-06-15 01:05:00,
2013-06-14 21:10:00,61.3,51.1,26.58,NW,315,0.0,0.0,69,0.00,,,0.00,WUHU216HW,2013-06-15 01:10:00,